Wind_Speed
26 27 28 29 28 27 24 19 17 16 15 14 14 16 16 15 13 7 7 6 15 9 8 6 12 16 18 8 18 18 10 11 3 7 1 6 6 4 4 17 19 6 20 30 36
27 27 29 30 29 28 25 20 19 18 18 17 17 16 14 11 11 15 12 13 8 11 10 11 11 14 10 13 9 9 9 8 7 7 6 3 10 14 6 21 15 18 24 34 35
28 29 29 30 29 29 26 21 19 21 19 17 16 13 10 7 5 6 10 20 15 11 14 17 18 13 13 13 14 10 15 9 11 16 6 20 16 5 15 10 21 23 26 24 26
28 29 30 31 30 29 26 21 20 20 18 15 11 9 6 2 3 5 4 14 18 12 12 9 8 11 10 13 15 12 18 19 14 14 19 12 18 4 8 12 20 26 29 23 20
29 30 30 31 31 30 27 19 19 18 13 12 9 4 2 4 8 5 2 10 12 13 16 12 9 13 12 10 14 16 14 16 16 17 20 16 22 16 22 18 6 22 25 22 20
29 31 31 31 31 31 28 19 20 15 12 10 7 3 1 5 3 6 5 10 11 16 15 15 10 12 9 14 12 12 14 14 11 9 7 21 22 22 9 3 9 24 25 20 19
30 31 32 32 32 30 27 20 20 12 10 7 5 3 6 13 2 4 6 13 12 17 9 20 23 13 8 9 12 15 10 12 9 5 5 14 13 11 7 9 12 18 21 21 18
31 32 32 32 30 30 26 20 17 13 9 4 2 4 7 4 9 8 10 17 16 17 20 21 23 16 10 9 12 8 8 7 9 8 11 12 10 11 12 11 13 6 14 20 20
33 34 33 32 31 30 26 20 18 13 9 5 2 5 7 8 4 11 9 12 18 14 20 22 19 10 8 5 6 7 7 8 11 14 7 7 15 17 18 13 8 8 9 9 18
32 33 34 32 30 28 25 22 14 9 6 5 9 6 8 9 5 2 6 12 9 10 11 12 8 6 5 3 7 8 8 9 9 12 13 12 15 16 16 20 19 9 8 15 15
33 32 31 32 27 24 26 9 1 1 6 8 5 6 4 11 4 9 9 7 6 7 9 6 3 8 9 10 10 14 15 13 11 12 9 15 18 24 21 19 23 21 18 18 20
32 31 32 31 25 17 15 3 6 7 8 13 18 13 8 6 4 6 6 6 5 8 6 6 11 9 10 13 12 17 16 16 14 14 9 9 13 20 18 21 25 23 14 15 21
31 33 35 30 21 12 9 15 9 9 4 8 8 7 7 5 7 8 7 8 7 8 10 10 11 18 15 12 15 15 11 13 12 19 14 6 4 9 12 8 9 7 9 4 24
31 33 35 29 8 12 10 3 11 6 3 5 7 3 4 1 5 11 3 3 4 9 10 10 15 15 16 16 14 9 10 12 14 10 5 5 4 6 12 8 15 12 8 5 12
32 35 30 14 13 8 13 13 11 6 3 10 6 3 4 7 5 3 8 4 7 11 4 8 11 12 16 13 15 12 10 9 10 9 5 18 3 6 16 7 7 15 9 11 16
33 31 25 2 8 12 16 17 13 2 5 6 6 6 5 6 3 6 5 3 6 6 9 9 11 6 7 12 12 6 7 11 7 2 5 11 2 10 11 17 9 12 18 7 25
34 23 15 9 5 11 15 8 2 4 9 5 7 7 9 7 6 4 3 5 3 2 4 6 10 11 11 9 6 7 4 3 4 5 10 8 7 10 6 21 26 30 26 33 32
32 15 9 13 9 16 13 3 3 13 12 7 5 5 4 7 1 6 6 4 7 6 6 4 9 8 4 6 6 7 7 5 7 5 9 9 8 9 12 14 25 31 33 23 23
25 7 8 11 13 8 2 3 5 9 13 13 10 2 2 8 4 7 5 7 5 9 4 7 6 17 15 16 13 9 7 8 6 9 7 6 9 18 11 9 18 24 21 21 21
18 7 12 8 1 6 2 5 7 13 9 8 5 7 6 11 5 4 1 8 6 8 8 8 5 6 14 15 10 9 5 3 3 7 12 5 11 6 6 13 14 20 24 23 15
3 3 6 7 5 2 1 4 6 12 9 8 7 6 9 9 9 10 7 14 13 13 11 5 3 9 9 4 9 12 3 4 2 3 10 9 7 9 8 7 18 19 27 24 16
7 1 9 6 2 3 4 3 8 12 12 8 4 6 9 11 8 8 8 9 13 9 5 9 4 5 13 18 17 15 12 9 4 8 4 3 6 23 13 19 31 12 25 26 21
5 1 15 22 4 4 2 14 12 10 12 9 10 10 7 5 4 8 9 12 13 9 5 7 4 4 9 9 1 6 12 13 2 3 9 5 5 12 14 16 20 23 23 16 19
4 3 4 9 9 12 8 8 9 13 12 11 7 7 9 9 10 4 6 7 8 8 10 6 3 4 5 11 10 12 22 22 11 6 9 10 12 10 13 15 19 18 23 17 22
2 3 6 6 6 9 12 11 12 9 9 9 6 13 10 5 8 6 12 10 13 10 4 4 4 8 14 17 16 17 19 23 20 11 3 10 11 3 6 11 13 12 16 20 13
3 3 3 4 2 12 11 9 11 10 7 9 9 11 8 4 5 8 7 7 5 7 4 1 5 7 13 17 19 20 18 19 21 19 11 12 15 7 8 13 15 12 11 13 10
9 7 2 4 11 6 5 4 3 3 7 8 5 3 7 10 11 12 11 9 9 8 8 1 2 3 5 10 15 15 14 16 20 19 11 10 5 10 11 14 16 14 10 13 12
Wind_Direction
358 356 354 352 352 350 348 344 341 336 330 322 316 314 313 313 312 293 238 231 215 227 221 207 209 225 225 226 239 247 254 278 26 339 237 10 345 309 302 128 156 186 151 159 164
355 353 351 350 350 349 346 341 335 330 321 316 310 313 315 319 300 257 230 219 247 227 221 226 201 218 231 220 239 219 241 244 135 293 150 205 61 313 244 148 112 119 142 164 168
351 350 348 348 347 346 344 338 335 329 323 314 305 307 318 345 283 233 203 218 226 217 220 226 230 205 228 231 245 245 245 243 195 209 154 137 147 220 348 169 141 147 152 166 176
349 348 346 345 344 344 342 336 335 332 327 320 312 308 327 19 346 181 192 213 220 217 216 243 268 245 225 233 240 235 245 255 249 191 173 158 137 230 352 298 146 153 156 167 162
348 346 344 343 341 341 338 332 334 332 337 328 317 309 16 228 254 153 178 197 201 197 207 215 251 251 217 236 247 247 253 264 275 159 183 152 156 153 177 224 140 150 160 171 156
345 343 342 341 340 337 334 327 331 325 324 312 312 306 252 252 138 162 187 175 191 193 210 221 241 249 227 242 252 256 253 259 269 252 170 134 144 156 222 176 198 158 166 161 159
343 341 340 337 337 334 328 323 330 319 315 334 302 204 258 245 326 247 206 220 206 202 217 225 246 271 265 281 255 274 298 303 278 275 246 125 152 98 74 65 163 166 159 162 164
341 339 337 334 333 330 321 317 322 314 298 313 10 203 258 253 238 239 232 239 197 205 217 238 246 260 267 278 287 299 292 274 285 251 257 163 123 131 121 123 141 144 169 168 172
341 337 335 332 330 327 315 314 310 295 285 285 258 215 270 197 221 221 222 221 178 215 206 240 256 253 289 284 311 282 256 264 265 268 245 204 122 169 155 163 64 176 192 187 184
338 336 334 330 328 324 314 319 299 285 274 227 265 277 266 236 119 305 221 272 182 178 209 233 247 220 264 211 232 253 257 234 244 253 244 220 138 173 169 143 117 305 274 189 206
335 335 334 329 325 321 324 342 159 165 235 233 257 237 307 104 169 226 170 242 226 190 210 218 239 217 227 246 254 269 279 288 279 246 241 202 151 177 169 138 153 186 246 209 194
335 335 334 329 322 312 309 246 41 291 297 272 259 255 290 342 261 145 164 221 192 203 185 239 228 241 223 241 236 254 269 281 288 289 187 228 167 165 168 162 168 186 183 222 185
337 336 335 327 321 306 250 277 317 302 262 279 223 218 222 194 261 151 178 241 195 215 208 221 235 223 237 241 244 247 244 270 278 301 310 235 76 147 194 161 174 155 176 316 180
337 336 336 329 315 322 277 328 335 9 297 240 149 217 105 295 284 111 22 349 273 236 224 228 231 251 224 235 248 257 262 259 268 290 279 26 281 212 183 164 167 165 80 350 346
337 336 329 330 305 310 359 332 335 301 298 142 121 118 199 193 149 123 70 325 273 292 278 257 224 245 245 251 218 250 278 282 283 287 306 295 26 263 158 148 213 143 79 304 296
334 335 326 46 289 291 321 321 302 264 232 136 132 176 172 242 217 134 189 202 303 306 316 298 311 288 261 276 262 270 251 274 295 320 292 268 171 280 171 186 156 132 125 284 258
331 328 308 287 247 342 328 313 246 246 140 141 161 162 204 183 203 133 264 192 224 190 266 275 265 277 293 314 280 261 288 306 296 284 255 266 265 235 266 187 168 168 183 192 212
329 317 270 261 274 310 323 298 267 348 18 40 41 59 338 0 21 144 172 278 296 265 301 293 313 216 256 226 262 253 208 181 229 232 263 250 263 262 251 177 174 179 188 202 196
336 345 272 262 268 273 307 262 46 8 11 356 326 260 254 233 171 37 328 350 302 32 38 4 285 339 325 332 237 255 264 240 240 275 279 274 277 258 249 272 176 182 187 200 209
336 301 252 335 310 253 277 30 70 57 345 343 338 6 354 5 349 176 216 23 27 66 61 345 336 336 337 333 327 187 236 308 288 223 259 287 288 268 267 237 195 201 187 193 192
344 276 26 323 254 265 19 100 41 47 31 15 6 355 355 351 352 343 350 54 25 8 6 41 44 299 334 314 335 337 289 294 262 240 243 264 269 259 247 328 295 198 192 186 179
323 275 350 314 294 234 54 40 18 27 17 6 354 9 28 3 358 346 346 35 34 29 20 9 298 320 293 296 303 300 288 239 191 278 245 209 272 279 320 4 352 231 189 180 179
313 268 42 20 18 17 97 95 65 29 30 14 12 18 358 347 355 356 3 2 53 27 52 354 328 346 320 320 314 327 330 312 263 308 266 255 252 339 16 14 3 1 20 187 160
298 9 4 46 17 33 354 39 73 46 36 11 45 26 23 353 346 313 334 12 35 67 23 359 288 270 262 288 329 317 318 321 312 242 269 267 262 7 358 6 0 4 8 11 163
242 54 66 28 19 56 40 27 39 22 354 45 24 30 26 14 333 4 357 349 341 2 45 35 288 304 296 295 303 298 301 305 306 293 255 286 292 331 3 357 357 14 17 20 69
42 15 15 3 36 70 31 20 30 11 346 12 22 3 2 342 314 320 326 326 330 341 334 345 314 329 299 298 297 284 279 287 291 290 296 299 295 321 11 10 359 357 9 10 5
357 356 269 13 50 51 41 36 356 52 315 20 49 29 316 358 340 314 302 294 294 287 293 147 164 353 276 311 312 287 269 279 280 285 281 288 323 358 9 16 349 340 10 353 350
Height
808 804 800 796 792 787 784 780 778 775 773 771 770 768 765 763 761 760 756 750 750 752 754 756 758 759 761 760 757 753 779 783 779 773 781 767 776 764 743 758 760 758 762 770 775
807 803 799 794 790 786 782 779 776 774 771 769 767 765 763 762 760 755 744 746 748 750 753 755 756 756 760 756 754 758 774 768 761 765 774 769 775 765 757 752 766 766 768 773 777
806 801 797 792 788 784 780 777 774 771 768 766 764 763 761 761 760 740 736 742 746 749 751 753 751 752 760 752 751 752 763 746 745 747 758 772 778 782 779 760 759 770 767 772 776
805 801 795 791 786 782 778 774 772 769 766 763 762 761 761 763 759 737 738 740 743 746 749 751 750 755 758 759 742 757 739 734 727 732 755 771 769 777 782 775 752 755 760 769 772
804 799 794 789 784 779 775 772 769 767 764 762 761 760 761 761 748 737 737 738 740 743 745 749 750 750 756 747 741 745 735 725 719 727 737 751 764 771 767 765 759 760 764 768 773
803 797 792 787 782 777 772 769 767 765 763 761 760 761 762 762 735 734 735 737 738 740 742 744 741 736 741 742 743 731 728 724 719 721 720 745 759 770 762 759 764 762 766 767 772
801 795 790 785 780 775 769 766 764 762 761 760 759 760 758 746 734 734 734 734 735 737 739 738 736 742 733 742 726 727 741 730 725 720 723 728 769 766 763 760 767 766 765 771 773
799 793 788 782 777 772 767 763 761 760 760 759 759 761 753 732 731 732 731 730 732 735 737 736 735 736 736 729 732 743 743 763 732 724 718 727 777 774 761 765 771 775 771 774 774
797 792 785 779 774 769 763 760 758 757 758 758 759 759 748 730 730 728 728 728 730 733 735 735 733 738 736 752 766 754 779 763 748 720 722 727 783 776 761 767 784 783 780 779 777
794 788 782 776 770 765 759 756 752 754 755 758 758 762 738 731 727 727 728 727 728 732 737 739 740 751 753 766 793 779 768 758 755 728 722 732 758 774 774 771 779 798 792 780 780
791 785 779 773 767 764 757 754 756 758 752 745 739 735 724 724 726 726 726 727 726 733 752 738 758 768 761 754 753 752 754 756 736 716 723 729 754 759 769 774 778 788 791 783 778
789 782 776 769 764 761 761 759 752 753 754 734 730 727 725 725 728 723 726 734 734 750 741 754 766 747 740 743 748 751 755 752 730 712 722 727 748 747 753 761 761 760 771 776 772
786 780 773 765 761 759 757 754 751 749 755 732 723 726 725 726 729 728 725 727 736 747 746 759 748 735 739 745 749 749 757 750 748 722 715 721 760 756 753 752 758 752 759 774 763
784 777 771 762 763 759 755 752 750 748 770 737 729 725 723 724 734 721 723 731 732 745 740 745 733 736 743 746 742 765 732 730 733 744 773 725 785 763 757 759 756 758 761 772 783
781 775 769 769 763 760 754 752 750 749 784 728 728 721 719 733 729 729 725 730 746 741 738 746 737 737 741 736 728 745 727 734 736 745 751 740 770 749 747 767 761 748 756 766 768
778 774 768 766 763 755 753 752 750 776 774 732 725 732 734 731 727 728 731 730 730 739 736 738 718 725 727 718 718 718 732 739 742 755 786 755 763 753 759 741 754 753 747 752 761
774 769 768 767 761 755 754 752 775 778 719 739 736 729 733 738 733 733 740 748 758 766 764 743 738 723 719 737 720 728 752 793 797 794 783 753 762 749 722 719 728 737 745 727 738
769 766 765 762 758 757 756 766 779 744 742 726 729 731 740 732 733 736 745 755 739 744 761 767 772 735 718 733 743 742 754 790 806 803 779 753 769 740 707 705 716 723 722 723 718
767 765 763 757 756 757 762 776 772 758 754 751 741 744 744 734 738 745 749 755 746 750 769 774 763 735 729 728 726 745 759 739 768 764 776 760 737 712 703 703 708 720 726 725 726
769 767 760 757 756 756 767 765 763 760 758 755 763 751 760 753 752 754 750 746 748 747 750 766 785 751 739 732 720 732 728 768 766 795 794 769 756 751 719 712 704 706 711 710 720
769 767 757 755 755 759 771 774 763 757 759 765 768 768 767 768 767 767 761 767 755 757 758 761 775 774 758 754 760 754 751 749 757 766 778 787 763 715 711 710 702 686 688 694 707
771 768 756 753 765 757 772 767 771 765 762 765 762 765 776 775 779 776 774 768 765 764 780 777 784 794 777 752 746 751 757 751 776 778 764 769 763 691 703 706 697 674 671 678 689
776 760 757 750 776 771 762 770 774 777 781 780 778 779 778 784 792 781 776 767 769 776 791 789 795 805 790 768 750 761 748 747 744 754 768 775 760 712 713 711 712 703 699 684 693
779 774 767 767 772 779 779 776 782 779 784 784 785 782 790 796 788 788 782 773 772 779 781 786 798 804 809 791 783 781 769 758 757 767 764 751 744 737 725 721 717 708 702 694 692
778 784 781 793 788 787 787 792 793 799 789 788 788 792 800 808 803 797 796 790 783 781 785 797 806 801 792 784 781 779 777 771 770 760 764 751 744 738 726 720 719 715 713 713 719
790 793 786 790 785 792 798 805 807 806 801 800 804 801 803 809 808 809 805 805 802 794 793 794 810 806 803 791 784 780 772 769 764 752 749 746 743 727 718 711 715 717 718 725 731
792 791 792 792 795 803 811 810 808 805 803 800 804 808 809 805 804 802 800 800 801 804 805 804 812 814 815 801 795 792 774 770 761 750 748 758 748 732 733 726 725 722 726 728 729